Location: Black Swamp Observatory
(41.3920°N, 84.1250°W)
Time: 05:13:57
(UTC-04:00)

Amateur Radio Satellites - All Passes

Search period start: 24 May 2015 04:43
Search period end: 25 May 2015 04:43
Location: Black Swamp Observatory, 41.3920°N, 84.1250°W

Satellite Date Start Highest point End Downlink Frequencies (MHz)
Time Altitude Azimuth
PHONESAT 2.4 24 May 04:45:24 04:47:44 17° 151° (SSE) 04:50:07 2401.200-2431.200
AIST 2 24 May 04:52:12 04:55:54 29° 48° (NE) 04:59:35 435.215
VERMONT LUNAR 24 May 04:56:27 04:59:32 45° 163° (SSE) 05:02:37 437.305
SO-50 24 May 05:01:05 05:05:45 76° 121° (ESE) 05:10:36 436.795
Cosmos 2499 24 May 05:02:58 05:08:44 27° 274° (W) 05:14:19 435.465 / 435.565
ISS 24 May 05:05:37 05:07:24 14° 1° (N) 05:09:10 145.825
HORYU 2 24 May 05:13:13 05:17:37 60° 101° (E) 05:21:58 437.375
AO-7 24 May 05:21:04 05:29:09 51° 101° (E) 05:37:16 29.400- 29.500
BEESAT 2 24 May 05:24:09 05:28:01 40° 243° (WSW) 05:31:49 435.950
MOZHAYETS 4 24 May 05:34:33 05:39:09 75° 259° (WSW) 05:43:44
ITAMSAT 1 24 May 06:01:24 06:03:04 11° 301° (WNW) 06:04:27 435.822/435.867
JAS-2 24 May 06:14:24 06:19:22 45° 289° (WNW) 06:24:19 435.910
PHONESAT 2.4 24 May 06:22:03 06:25:27 54° 166° (SSE) 06:28:51 2401.200-2431.200
Cubesat XI-IV 24 May 06:30:02 06:30:38 10° 86° (E) 06:31:38 437.490
AIST 2 24 May 06:30:45 06:34:27 29° 245° (WSW) 06:38:02 435.215
VERMONT LUNAR 24 May 06:33:25 06:36:38 78° 180° (S) 06:39:50 437.305
PRISM 24 May 06:41:26 06:44:22 20° 67° (ENE) 06:47:24 437.425
ISS 24 May 06:41:57 06:44:41 24° 21° (NNE) 06:47:25 145.825
SO-50 24 May 06:43:35 06:46:55 18° 321° (NW) 06:50:13 436.795
HORYU 2 24 May 06:51:25 06:53:49 14° 296° (WNW) 06:56:02 437.375
Cosmos 2491 24 May 07:01:33 07:09:42 40° 71° (ENE) 07:17:54 435.465 / 435.565
STRAND 1 24 May 07:03:07 07:07:39 35° 69° (ENE) 07:12:17 437.568
CUBESAT XI-V 24 May 07:03:57 07:08:32 76° 76° (ENE) 07:13:09 437.345
M-CUBED/EXP-1 PRIME 24 May 07:09:55 07:13:48 34° 67° (ENE) 07:17:29 437.505
AO-7 24 May 07:14:14 07:21:47 39° 299° (WNW) 07:29:12 29.400- 29.500
AUBIESAT-1 24 May 07:21:09 07:25:08 39° 68° (ENE) 07:28:52 437.475
CUTE-I 24 May 07:46:41 07:51:59 58° 101° (E) 07:57:16 437.470
YUBILEINY 24 May 07:54:50 08:02:27 36° 86° (E) 08:10:15 435.215
PHONESAT 2.4 24 May 08:00:01 08:03:29 78° 184° (S) 08:06:57 2401.200-2431.200
Cubesat XI-IV 24 May 08:06:13 08:11:37 87° 101° (E) 08:17:01 437.490
VERMONT LUNAR 24 May 08:10:39 08:13:43 44° 196° (SSW) 08:16:47 437.305
PRISM 24 May 08:15:55 08:19:38 33° 263° (W) 08:23:21 437.425
RS-15 24 May 08:16:12 08:19:34 12° 98° (E) 08:24:01 29.354- 29.394
AIST 1 24 May 08:17:50 08:21:20 23° 73° (ENE) 08:24:55
ISS 24 May 08:18:05 08:21:19 59° 218° (SW) 08:24:32 145.825
STRAND 1 24 May 08:42:33 08:46:55 28° 265° (W) 08:51:14 437.568
M-CUBED/EXP-1 PRIME 24 May 08:45:21 08:48:42 21° 260° (W) 08:51:47 437.505
CUBESAT XI-V 24 May 08:45:52 08:46:39 10° 274° (W) 08:47:05 437.345
AUBIESAT-1 24 May 08:57:01 09:00:01 18° 261° (W) 09:02:45 437.475
Cosmos 2491 24 May 08:58:25 09:06:43 46° 271° (W) 09:14:50 435.465 / 435.565
HO-68 24 May 09:19:32 09:25:11 25° 92° (E) 09:31:00 435.675
DOVE 4 24 May 09:24:51 09:28:45 22° 90° (E) 09:32:38 437.250
BRITE-PL 24 May 09:26:36 09:32:13 56° 98° (E) 09:37:37 437.365/2234.400
CUTE-I 24 May 09:27:49 09:31:40 20° 297° (WNW) 09:35:20 437.470
CANX-2 24 May 09:38:06 09:41:39 26° 94° (E) 09:45:15 2200.000
PHONESAT 2.4 24 May 09:38:11 09:41:28 40° 199° (SSW) 09:44:43 2401.200-2431.200
CUTE 1.7 + AOD 2 24 May 09:42:09 09:45:42 26° 94° (E) 09:49:18 437.475
GOMX 1 24 May 09:45:34 09:50:54 54° 98° (E) 09:55:59 467.674
Cubesat XI-IV 24 May 09:48:27 09:51:04 13° 300° (WNW) 09:53:26 437.490
VERMONT LUNAR 24 May 09:49:03 09:50:28 12° 211° (SSW) 09:51:49 437.305
YUBILEINY 24 May 09:50:36 09:59:05 50° 286° (WNW) 10:07:29 435.215
UNISAT 6 24 May 09:54:09 09:55:18 11° 62° (ENE) 09:56:43 437.425
AIST 1 24 May 09:55:12 09:59:01 29° 269° (W) 10:02:46
SEEDS 24 May 10:09:27 10:13:27 44° 98° (E) 10:17:27 437.485
RS-15 24 May 10:19:20 10:30:00 67° 116° (ESE) 10:41:00 29.354- 29.394
COMPASS 1 24 May 10:27:42 10:31:48 58° 100° (E) 10:35:53 437.405
QB50P1 24 May 10:33:50 10:35:14 12° 63° (ENE) 10:36:51 145.935-145.965
POLYITAN 1 24 May 10:33:53 10:35:27 12° 63° (ENE) 10:37:14 437.675
ANTELSAT 24 May 10:34:16 10:38:13 28° 69° (ENE) 10:42:12 437.575/2403.000
PCSat 24 May 10:35:25 10:39:54 26° 47° (NE) 10:44:28 145.827
CUBEBUG 2 24 May 10:38:52 10:42:42 27° 94° (E) 10:46:28 437.445
AAUSAT CUBESAT 2 24 May 10:42:32 10:46:41 74° 101° (E) 10:50:48 437.432
ZACube-1 24 May 10:54:22 10:57:56 25° 93° (E) 11:01:30 437.345
DOVE 4 24 May 11:01:48 11:06:46 44° 289° (WNW) 11:11:27 437.250
CINEMA 3 24 May 11:02:35 11:07:26 82° 282° (WNW) 11:12:00 145.822/145.860
UKube-1 24 May 11:03:49 11:05:58 14° 90° (E) 11:08:19 .
NANOSAT C BR1 24 May 11:04:08 11:07:32 24° 68° (ENE) 11:11:01 145.865
BRITE-PL 24 May 11:05:56 11:10:18 22° 295° (WNW) 11:14:25 437.365/2234.400
HO-68 24 May 11:06:23 11:13:26 61° 291° (WNW) 11:20:25 435.675
Cosmos 2504 24 May 11:07:00 11:15:17 63° 93° (E) 11:23:04 435.465 / 435.565
DX 1 24 May 11:07:27 11:10:12 17° 91° (E) 11:13:07 434.975-435.025
TIGRISAT 24 May 11:07:48 11:12:26 58° 73° (ENE) 11:17:02 435.000
QB50P2 24 May 11:09:32 11:13:11 28° 69° (ENE) 11:16:54 145.880/145.840
Oscar 11 24 May 11:13:31 11:17:51 74° 102° (ESE) 11:22:08 145.826/435.025
CANX-2 24 May 11:14:00 11:17:32 25° 291° (WNW) 11:20:57 2200.000
HUMSAT D 24 May 11:14:22 11:17:13 18° 91° (E) 11:20:10 437.325/437.525
PHONESAT 2.4 24 May 11:18:00 11:19:03 11° 213° (SSW) 11:20:01 2401.200-2431.200
CUTE 1.7 + AOD 2 24 May 11:18:02 11:21:34 25° 291° (WNW) 11:25:01 437.475
50 SAT 24 May 11:20:26 11:21:04 10° 88° (E) 11:21:56 437.505
POPSAT HIP 1 24 May 11:22:16 11:26:12 37° 71° (ENE) 11:30:13 437.405
GOMX 1 24 May 11:24:31 11:28:36 21° 295° (WNW) 11:32:26 467.674
DUCHIFAT 1 24 May 11:26:44 11:30:42 40° 72° (ENE) 11:34:46 145.980
UNISAT 6 24 May 11:26:45 11:31:29 86° 257° (WSW) 11:36:12 437.425
DELFI C3 24 May 11:30:35 11:34:37 86° 102° (ESE) 11:38:38 145.870
UWE-3 24 May 11:32:23 11:36:51 86° 99° (E) 11:41:10 435.000/436.395/437.385
AISAT 24 May 11:39:36 11:42:49 20° 92° (E) 11:46:09 437.250
SEEDS 24 May 11:46:18 11:48:57 16° 294° (WNW) 11:51:25 437.485
FUNcube-1 24 May 11:50:49 11:55:12 78° 284° (WNW) 11:59:26 145.935
SO-50 24 May 11:53:32 11:55:59 14° 34° (NE) 11:58:35 436.795
BUGSAT 1 24 May 12:03:33 12:07:40 74° 76° (ENE) 12:11:52 437.445
COMPASS 1 24 May 12:05:10 12:07:03 13° 295° (WNW) 12:08:46 437.405
QB50P1 24 May 12:06:20 12:10:35 69° 258° (WSW) 12:14:54 145.935-145.965
POLYITAN 1 24 May 12:06:34 12:10:52 68° 259° (W) 12:15:11 437.675
ANTELSAT 24 May 12:10:43 12:14:55 31° 265° (W) 12:19:02 437.575/2403.000
CUBEBUG 2 24 May 12:15:29 12:19:22 28° 291° (WNW) 12:23:03 437.445
PCSat 24 May 12:18:22 12:23:38 50° 246° (WSW) 12:28:49 145.827
GONETS M04 24 May 12:29:38 12:31:24 11° 75° (ENE) 12:33:58
ZACube-1 24 May 12:30:31 12:34:19 28° 291° (WNW) 12:37:57 437.345
RS-15 24 May 12:32:57 12:43:10 41° 322° (NW) 12:53:36 29.354- 29.394
ESTCUBE 1 24 May 12:35:32 12:39:52 44° 98° (E) 12:44:13 437.505/2401.250
UKube-1 24 May 12:38:14 12:42:30 53° 287° (WNW) 12:46:43 .
NANOSAT C BR1 24 May 12:39:29 12:43:16 30° 264° (W) 12:47:02 145.865
DX 1 24 May 12:42:31 12:46:44 44° 288° (WNW) 12:50:54 434.975-435.025
VELOX 1 24 May 12:44:35 12:49:06 87° 283° (WNW) 12:53:35 145.980
QB50P2 24 May 12:45:28 12:49:04 25° 266° (W) 12:52:37 145.880/145.840
TIGRISAT 24 May 12:46:55 12:49:35 14° 271° (W) 12:52:03 435.000
HUMSAT D 24 May 12:49:17 12:53:09 36° 289° (WNW) 12:56:55 437.325/437.525
CUBEBUG 1 24 May 12:51:37 12:56:02 58° 100° (E) 13:00:25 437.445
Oscar 11 24 May 12:52:15 12:53:29 11° 297° (WNW) 12:54:30 145.826/435.025
50 SAT 24 May 12:52:23 12:56:13 54° 286° (WNW) 12:59:58 437.505
HO-68 24 May 12:57:08 12:59:54 12° 309° (NW) 13:02:15 435.675
POPSAT HIP 1 24 May 12:59:08 13:02:15 19° 268° (W) 13:05:16 437.405
Cosmos 2504 24 May 13:02:15 13:09:14 28° 292° (WNW) 13:15:40 435.465 / 435.565
DUCHIFAT 1 24 May 13:03:50 13:06:45 17° 269° (W) 13:09:32 145.980
CUSAT 1 24 May 13:08:02 13:13:33 25° 83° (E) 13:19:57 437.405
AISAT 24 May 13:15:22 13:19:35 39° 289° (WNW) 13:23:45 437.250
SO-50 24 May 13:32:32 13:37:31 69° 56° (NE) 13:42:23 436.795
SPROUT 24 May 13:42:08 13:46:26 57° 100° (E) 13:50:41 437.525
Oscar 19 24 May 13:50:30 13:55:31 52° 72° (ENE) 14:00:35 437.125/150
DANDE 24 May 13:57:45 14:04:05 45° 89° (E) 14:11:48 436.750
ITAMSAT 1 24 May 13:59:38 14:03:14 20° 64° (ENE) 14:07:00 435.822/435.867
SWISSCUBE 24 May 14:03:18 14:05:10 12° 88° (E) 14:07:18 437.505
ESTCUBE 1 24 May 14:13:14 14:16:27 19° 294° (WNW) 14:19:31 437.505/2401.250
TISAT 1 24 May 14:17:09 14:21:27 79° 285° (WNW) 14:25:42 437.305
GONETS M04 24 May 14:18:02 14:26:43 65° 93° (E) 14:35:28
Gurwin Techsat 1B 24 May 14:19:14 14:23:38 28° 67° (ENE) 14:28:09 435.225
CUBEBUG 1 24 May 14:29:27 14:31:57 14° 296° (WNW) 14:34:16 437.445
AO-7 24 May 14:32:10 14:36:34 16° 49° (NE) 14:41:24 29.400- 29.500
JAS-2 24 May 14:45:09 14:47:20 12° 60° (ENE) 14:49:47 435.910
CUSAT 1 24 May 14:48:26 14:55:30 69° 283° (WNW) 15:03:45 437.405
RS-15 24 May 14:51:44 14:59:49 22° 354° (N) 15:08:04 29.354- 29.394
SO-50 24 May 15:14:40 15:17:33 15° 251° (WSW) 15:20:13 436.795
SPROUT 24 May 15:19:46 15:22:05 14° 296° (WNW) 15:24:14 437.525
ITUPSAT 1 24 May 15:21:10 15:25:58 72° 102° (ESE) 15:30:45 437.325
BEESAT 24 May 15:30:46 15:35:34 89° 281° (W) 15:40:21 436.000
Oscar 19 24 May 15:31:29 15:35:14 19° 269° (W) 15:38:50 437.125/150
ITAMSAT 1 24 May 15:37:20 15:42:23 53° 260° (W) 15:47:28 435.822/435.867
SWISSCUBE 24 May 15:38:50 15:43:35 69° 286° (WNW) 15:48:21 437.505
DANDE 24 May 15:40:56 15:47:27 39° 292° (WNW) 15:55:06 436.750
Cosmos 2499 24 May 15:45:05 15:52:41 44° 90° (E) 15:59:52 435.465 / 435.565
STARS 24 May 15:56:55 16:00:01 19° 92° (E) 16:03:15 437.465
Gurwin Techsat 1B 24 May 15:58:33 16:03:29 38° 263° (W) 16:08:24 435.225
HORYU 2 24 May 16:11:20 16:15:43 56° 74° (ENE) 16:20:08 437.375
GONETS M04 24 May 16:16:53 16:24:20 28° 294° (WNW) 16:31:35
AO-7 24 May 16:19:52 16:28:02 69° 68° (ENE) 16:36:19 29.400- 29.500
KKS-1 24 May 16:21:04 16:25:30 56° 100° (E) 16:29:54 437.445
JAS-2 24 May 16:24:55 16:31:46 73° 74° (ENE) 16:37:50 435.910
CUSAT 1 24 May 16:35:43 16:40:07 15° 307° (NW) 16:44:18 437.405
O/OREOS (USA 219) 24 May 16:42:32 16:46:42 38° 106° (ESE) 16:50:55 437.305
ITUPSAT 1 24 May 17:00:53 17:03:20 14° 298° (WNW) 17:05:33 437.325
RS-15 24 May 17:07:34 17:17:14 31° 29° (NNE) 17:27:28 29.354- 29.394
BEESAT 24 May 17:11:33 17:12:46 11° 299° (WNW) 17:13:42 436.000
MOZHAYETS 4 24 May 17:30:07 17:33:51 25° 94° (E) 17:37:39
CUTE-I 24 May 17:32:16 17:34:34 13° 60° (ENE) 17:37:08 437.470
STARS 24 May 17:32:31 17:36:40 39° 289° (WNW) 17:40:46 437.465
Cosmos 2499 24 May 17:38:25 17:45:56 37° 288° (WNW) 17:52:53 435.465 / 435.565
HORYU 2 24 May 17:50:20 17:52:46 14° 270° (W) 17:55:00 437.375
Cubesat XI-IV 24 May 17:50:28 17:54:06 20° 63° (ENE) 17:57:55 437.490
KKS-1 24 May 17:59:05 18:01:43 15° 296° (WNW) 18:04:11 437.445
YUBILEINY 24 May 18:05:17 18:10:27 17° 58° (ENE) 18:16:04 435.215
JAS-2 24 May 18:12:44 18:17:21 18° 269° (W) 18:21:22 435.910
AO-7 24 May 18:14:47 18:21:34 26° 268° (W) 18:28:07 29.400- 29.500
O/OREOS (USA 219) 24 May 18:22:44 18:26:18 22° 304° (NW) 18:29:47 437.305
BEESAT 3 24 May 18:34:23 18:36:33 15° 111° (ESE) 18:38:54 437.485
CUBESAT XI-V 24 May 19:01:25 19:04:43 19° 91° (E) 19:08:10 437.345
MOZHAYETS 4 24 May 19:07:03 19:11:07 31° 290° (WNW) 19:15:07
CUTE-I 24 May 19:08:41 19:13:59 87° 253° (WSW) 19:19:22 437.470
STRAND 1 24 May 19:15:53 19:17:07 11° 87° (E) 19:18:42 437.568
BEESAT 2 24 May 19:17:42 19:21:24 34° 116° (ESE) 19:25:12 435.950
RS-15 24 May 19:20:08 19:31:48 81° 56° (NE) 19:43:58 29.354- 29.394
Cubesat XI-IV 24 May 19:28:36 19:33:49 57° 259° (W) 19:39:05 437.490
HO-68 24 May 19:49:26 19:54:22 21° 57° (ENE) 19:59:33 435.675
PRISM 24 May 19:57:52 20:01:33 30° 97° (E) 20:05:16 437.425
YUBILEINY 24 May 20:00:10 20:08:56 84° 82° (E) 20:17:39 435.215
Cosmos 2491 24 May 20:02:40 20:10:49 46° 89° (E) 20:19:07 435.465 / 435.565
BEESAT 3 24 May 20:10:09 20:14:09 52° 306° (NW) 20:18:11 437.485
M-CUBED/EXP-1 PRIME 24 May 20:26:12 20:28:39 20° 99° (E) 20:31:10 437.505
AIST 2 24 May 20:27:54 20:32:04 56° 118° (ESE) 20:36:16 435.215
DOVE 4 24 May 20:30:09 20:34:05 24° 66° (ENE) 20:38:16 437.250
CINEMA 3 24 May 20:30:16 20:31:55 12° 61° (ENE) 20:33:51 145.822/145.860
CANX-2 24 May 20:31:35 20:34:43 21° 68° (ENE) 20:37:57 2200.000
CUTE 1.7 + AOD 2 24 May 20:35:33 20:38:41 21° 68° (ENE) 20:41:55 437.475
AUBIESAT-1 24 May 20:36:45 20:39:25 23° 100° (E) 20:42:09 437.475
BRITE-PL 24 May 20:37:03 20:41:57 59° 73° (ENE) 20:47:18 437.365/2234.400
CUBESAT XI-V 24 May 20:37:57 20:42:24 43° 288° (WNW) 20:46:50 437.345
AIST 1 24 May 20:49:06 20:51:04 13° 86° (E) 20:53:15
STRAND 1 24 May 20:51:55 20:57:06 85° 285° (WNW) 21:02:15 437.568
GOMX 1 24 May 20:53:06 20:58:02 55° 73° (ENE) 21:03:18 467.674
BEESAT 2 24 May 20:56:07 20:59:34 25° 314° (NW) 21:03:00 435.950
Cosmos 2504 24 May 21:00:50 21:05:39 19° 63° (ENE) 21:10:43 435.465 / 435.565
SEEDS 24 May 21:01:39 21:05:23 32° 71° (ENE) 21:09:10 437.485
COMPASS 1 24 May 21:18:56 21:22:51 39° 72° (ENE) 21:26:47 437.405
AAUSAT CUBESAT 2 24 May 21:33:12 21:37:14 49° 73° (ENE) 21:41:17 437.432
PRISM 24 May 21:33:36 21:36:52 22° 292° (WNW) 21:40:02 437.425
RS-15 24 May 21:33:47 21:43:20 29° 255° (WSW) 21:52:39 29.354- 29.394
HO-68 24 May 21:34:11 21:41:23 81° 255° (WSW) 21:48:38 435.675
CUBEBUG 2 24 May 21:36:55 21:40:49 26° 68° (ENE) 21:44:49 437.445
ZACube-1 24 May 21:50:24 21:53:55 23° 68° (ENE) 21:57:33 437.345
YUBILEINY 24 May 21:58:53 22:04:49 20° 280° (W) 22:10:16 435.215
UKube-1 24 May 21:59:30 22:01:26 13° 63° (ENE) 22:03:34 .
Cosmos 2491 24 May 21:59:39 22:07:50 40° 289° (WNW) 22:15:58 435.465 / 435.565
M-CUBED/EXP-1 PRIME 24 May 22:00:56 22:03:31 21° 296° (WNW) 22:06:01 437.505
CINEMA 3 24 May 22:03:26 22:08:24 90° 102° (ESE) 22:13:30 145.822/145.860
DX 1 24 May 22:03:44 22:06:16 16° 65° (ENE) 22:08:59 434.975-435.025
CANX-2 24 May 22:06:31 22:10:27 34° 263° (W) 22:14:22 2200.000
DOVE 4 24 May 22:06:42 22:11:32 45° 263° (W) 22:16:35 437.250
HUMSAT D 24 May 22:06:55 22:09:18 15° 66° (ENE) 22:11:52 437.325/437.525
AIST 2 24 May 22:07:55 22:11:00 19° 318° (NW) 22:14:00 435.215
Oscar 11 24 May 22:08:08 22:12:23 57° 74° (ENE) 22:16:38 145.826/435.025
CUTE 1.7 + AOD 2 24 May 22:10:29 22:14:25 34° 264° (W) 22:18:19 437.475
AUBIESAT-1 24 May 22:11:46 22:14:09 18° 297° (WNW) 22:16:27 437.475
BRITE-PL 24 May 22:17:43 22:21:03 17° 273° (W) 22:24:18 437.365/2234.400
DELFI C3 24 May 22:17:50 22:21:44 51° 74° (ENE) 22:25:39 145.870
AIST 1 24 May 22:24:13 22:28:20 47° 282° (WNW) 22:32:29
UWE-3 24 May 22:28:52 22:33:31 70° 76° (ENE) 22:38:13 435.000/436.395/437.385
GOMX 1 24 May 22:33:02 22:36:38 18° 272° (W) 22:40:09 467.674
STRAND 1 24 May 22:33:52 22:35:35 11° 301° (WNW) 22:37:02 437.568
AISAT 24 May 22:37:55 22:40:56 19° 66° (ENE) 22:44:08 437.250
SEEDS 24 May 22:37:57 22:41:16 21° 267° (W) 22:44:29 437.485
FUNcube-1 24 May 22:45:55 22:50:31 82° 76° (ENE) 22:55:07 145.935
Cosmos 2504 24 May 22:52:46 23:00:00 74° 265° (W) 23:07:09 435.465 / 435.565
COMPASS 1 24 May 22:55:54 22:58:44 17° 269° (W) 23:01:25 437.405
TIGRISAT 24 May 23:02:11 23:03:23 11° 87° (E) 23:04:50 435.000
AAUSAT CUBESAT 2 24 May 23:10:59 23:13:11 14° 270° (W) 23:15:12 437.432
CUBEBUG 2 24 May 23:13:02 23:17:22 34° 264° (W) 23:21:42 437.445
UNISAT 6 24 May 23:19:55 23:23:00 19° 91° (E) 23:26:09 437.425
ZACube-1 24 May 23:25:49 23:30:06 37° 263° (W) 23:34:21 437.345
HO-68 24 May 23:26:51 23:30:22 13° 275° (W) 23:33:22 435.675
UKube-1 24 May 23:32:50 23:37:07 62° 259° (W) 23:41:25 .
ESTCUBE 1 24 May 23:35:15 23:39:26 41° 71° (ENE) 23:43:40 437.505/2401.250
50 SAT 24 May 23:36:36 23:40:36 82° 79° (E) 23:44:38 437.505
DX 1 24 May 23:37:55 23:42:09 50° 261° (W) 23:46:25 434.975-435.025
HUMSAT D 24 May 23:40:27 23:44:41 52° 261° (W) 23:48:55 437.325/437.525
VELOX 1 24 May 23:42:01 23:46:26 84° 77° (ENE) 23:50:55 145.980
CUSAT 1 24 May 23:46:52 23:52:00 20° 57° (ENE) 23:56:43 437.405
Oscar 11 24 May 23:46:56 23:48:59 13° 271° (W) 23:50:49 145.826/435.025
CUBEBUG 1 24 May 23:47:46 23:51:55 48° 73° (ENE) 23:56:10 437.445
BUGSAT 1 24 May 23:48:11 23:49:17 11° 88° (E) 23:50:38 437.445
QB50P1 24 May 23:52:18 23:55:20 19° 92° (E) 23:58:27 145.935-145.965
POLYITAN 1 24 May 23:52:50 23:55:56 20° 92° (E) 23:59:07 437.675
DELFI C3 24 May 23:55:28 23:57:13 12° 271° (W) 23:58:46 145.870
ANTELSAT 25 May 00:02:17 00:06:37 55° 100° (E) 00:10:52 437.575/2403.000
UWE-3 25 May 00:08:41 00:10:37 12° 273° (W) 00:12:15 435.000/436.395/437.385
AISAT 25 May 00:13:01 00:17:15 43° 262° (W) 00:21:31 437.250
NANOSAT C BR1 25 May 00:23:50 00:27:54 42° 98° (E) 00:31:58 145.865
GONETS M04 25 May 00:28:42 00:36:17 32° 68° (ENE) 00:43:59
QB50P2 25 May 00:29:54 00:34:06 51° 99° (E) 00:38:16 145.880/145.840
SPROUT 25 May 00:36:15 00:40:21 44° 73° (ENE) 00:44:30 437.525
TIGRISAT 25 May 00:36:19 00:40:42 64° 286° (WNW) 00:44:58 435.000
DANDE 25 May 00:40:05 00:47:35 40° 68° (ENE) 00:53:51 436.750
POPSAT HIP 1 25 May 00:42:45 00:47:04 70° 102° (ESE) 00:51:18 437.405
DUCHIFAT 1 25 May 00:46:45 00:51:03 76° 102° (ESE) 00:55:18 145.980
Cosmos 2504 25 May 00:50:47 00:52:12 10° 282° (WNW) 00:53:02 435.465 / 435.565
UNISAT 6 25 May 00:55:53 01:00:00 38° 289° (WNW) 01:03:59 437.425
ISS 25 May 00:57:11 01:00:12 38° 138° (SE) 01:03:16 145.825
BEESAT 25 May 01:02:53 01:04:42 12° 62° (ENE) 01:06:45 436.000
TISAT 1 25 May 01:09:02 01:13:15 77° 76° (ENE) 01:17:32 437.305
SWISSCUBE 25 May 01:09:56 01:12:41 16° 64° (ENE) 01:15:37 437.505
ESTCUBE 1 25 May 01:13:19 01:16:32 19° 268° (W) 01:19:37 437.505/2401.250
PCSat 25 May 01:18:14 01:22:04 21° 107° (ESE) 01:26:05 145.827
BUGSAT 1 25 May 01:21:00 01:25:15 64° 285° (WNW) 01:29:27 437.445
CUBEBUG 1 25 May 01:25:58 01:28:37 15° 270° (W) 01:31:07 437.445
QB50P1 25 May 01:27:23 01:31:21 37° 289° (WNW) 01:35:16 145.935-145.965
POLYITAN 1 25 May 01:28:02 01:31:59 36° 289° (WNW) 01:35:52 437.675
CUSAT 1 25 May 01:28:23 01:35:59 80° 263° (W) 01:41:52 437.405
Cosmos 2499 25 May 01:38:20 01:40:48 12° 58° (ENE) 01:43:45 435.465 / 435.565
ANTELSAT 25 May 01:40:30 01:42:59 15° 296° (WNW) 01:45:16 437.575/2403.000
NANOSAT C BR1 25 May 02:00:31 02:03:27 18° 294° (WNW) 02:06:15 145.865
Oscar 19 25 May 02:03:04 02:06:28 18° 90° (E) 02:10:01 437.125/150
QB50P2 25 May 02:07:05 02:09:37 15° 295° (WNW) 02:11:58 145.880/145.840
SPROUT 25 May 02:13:54 02:16:43 16° 269° (W) 02:19:21 437.525
POPSAT HIP 1 25 May 02:20:53 02:22:24 11° 297° (WNW) 02:23:43 437.405
DANDE 25 May 02:23:26 02:30:54 42° 271° (W) 02:36:57 436.750
GONETS M04 25 May 02:25:06 02:33:39 57° 269° (W) 02:42:04
DUCHIFAT 1 25 May 02:25:17 02:26:18 11° 297° (WNW) 02:27:04 145.980
ITUPSAT 1 25 May 02:27:57 02:32:43 83° 74° (ENE) 02:37:30 437.325
ISS 25 May 02:33:45 02:36:41 30° 335° (NNW) 02:39:36 145.825
BEESAT 25 May 02:37:13 02:41:58 78° 256° (WSW) 02:46:45 436.000
SWISSCUBE 25 May 02:45:26 02:50:07 59° 259° (W) 02:54:50 437.505
O/OREOS (USA 219) 25 May 02:52:05 02:56:34 76° 66° (ENE) 03:01:02 437.305
BEESAT 3 25 May 02:52:21 02:54:10 13° 38° (NE) 02:56:05 437.485
STARS 25 May 02:54:17 02:57:16 18° 66° (ENE) 03:00:23 437.465
PCSat 25 May 02:59:48 03:05:07 56° 304° (NW) 03:10:28 145.827
CUSAT 1 25 May 03:14:07 03:17:09 13° 283° (WNW) 03:19:32 437.405
KKS-1 25 May 03:19:07 03:23:27 51° 73° (ENE) 03:27:51 437.445
Cosmos 2499 25 May 03:28:23 03:35:29 77° 81° (E) 03:42:38 435.465 / 435.565
BEESAT 2 25 May 03:36:51 03:40:14 24° 46° (NE) 03:43:39 435.950
Oscar 19 25 May 03:41:11 03:46:14 54° 288° (WNW) 03:51:13 437.125/150
SO-50 25 May 03:48:02 03:51:31 22° 112° (ESE) 03:55:13 436.795
ITAMSAT 1 25 May 03:49:55 03:55:02 54° 100° (E) 04:00:09 435.822/435.867
VERMONT LUNAR 25 May 04:01:18 04:04:14 33° 159° (SSE) 04:07:11 437.305
PHONESAT 2.4 25 May 04:03:40 04:05:31 14° 149° (SSE) 04:07:26 2401.200-2431.200
HORYU 2 25 May 04:05:42 04:06:05 10° 87° (E) 04:06:48 437.375
ISS 25 May 04:12:02 04:13:52 14° 355° (N) 04:15:43 145.825
Gurwin Techsat 1B 25 May 04:14:06 04:19:27 85° 101° (E) 04:24:47 435.225
AO-7 25 May 04:22:38 04:28:26 21° 90° (E) 04:34:36 29.400- 29.500
BEESAT 3 25 May 04:28:41 04:32:47 87° 241° (WSW) 04:36:48 437.485
STARS 25 May 04:29:10 04:33:25 44° 261° (W) 04:37:42 437.465
MOZHAYETS 4 25 May 04:32:22 04:36:01 25° 68° (ENE) 04:39:46
